AirNav   Air Wisconsin pilot careers
 
 702 users online  

4KY5 Weavers Run Airport
West Point, Kentucky, USA

GOING TO WEST POINT?


FAA INFORMATION EFFECTIVE 06 DECEMBER 2018

Location

FAA Identifier: 4KY5
Lat/Long: 38-01-43.0000N / 085-53-24.0000W
38-01.716667N / 085-53.400000W
38.0286111 / -85.8900000
(estimated)
Elevation: 550 ft. / 168 m (estimated)
Variation: 04W ()
From city: 5 miles NE of WEST POINT, KY
Time zone: UTC -5 (UTC -4 during Daylight Saving Time)
Zip code: 40353

Airport Operations

Airport use: Private use. Permission required prior to landing
Activation date: 05/2000
Control tower: no
ARTCC: INDIANAPOLIS CENTER
FSS: LOUISVILLE FLIGHT SERVICE STATION
Attendance: UNATNDD
Wind indicator: yes
Segmented circle: no

Airport Communications

WX ASOS at SDF (11 nm NE): PHONE 502-367-1492
WX ASOS at LOU (16 nm NE): 118.275 (502-473-0693)

Nearby radio navigation aids

VOR radial/distance  VOR name  Freq  Var
FTKr029/8.3FORT KNOX VOR/DME109.6001W
IIUr252/15.4LOUISVILLE VORTAC114.8001E
BQMr225/16.1BOWMAN VOR/DME112.2004W
MYSr065/(18.6)MYSTIC VOR108.2001W
EWOr336/25.9NEW HOPE VOR/DME110.8001E

 
NDB name  Hdg/Dist  Freq  Var  ID
GODMAN047/5.939603WGOI --. --- ..
LAANG244/14.041404WLK .-.. -.-

Airport Services

Runway Information

Runway 6/24

Dimensions: 750 x 70 ft. / 229 x 21 m
Surface: turf
Runway edge markings: RY 06/24 MKD WITH PLASTIC SQUARES.
RUNWAY 6  RUNWAY 24
Traffic pattern: leftleft
Obstructions: hilltrees

Airport Ownership and Management from official FAA records

Ownership: Privately-owned
Owner: GARY DOTSON
1367 WEAVERS RUN ROAD
WEST POINT, KY 40177
Phone 502-922-0365
Manager: GARY DOTSON
1367 WEAVERS RUN ROAD
WEST POINT, KY 40177
Phone 502-922-0365

Airport Operational Statistics

Aircraft based on the field: 2
Single engine airplanes: 2
    

Instrument Procedures

There are no published instrument procedures at 4KY5.

Some nearby airports with instrument procedures:

KFTK - Godman Army Airfield (8 nm SW)
KSDF - Louisville International Airport-Standiford Field (11 nm NE)
KLOU - Bowman Field Airport (16 nm NE)
KEKX - Addington Field Airport (21 nm S)
KJVY - Clark Regional Airport (22 nm N)
 
Loc | Ops | Rwys | IFR | FBO | Links
Com | Nav | Svcs | Stats | Notes


 
Area around 4KY5 (Weavers Run Airport)
 
Road maps at: MapQuest Bing Google
 
Aerial photo
No photo
 
Sectional chart

 
Airport distance calculator
Flying to Weavers Run Airport? Find the distance to fly.

From to 4KY5

Sunrise and sunset
Times for 12-Dec-2018
 Local
(UTC-5)
 Zulu
(UTC)
Morning civil twilight07:2212:22
Sunrise07:5112:51
Sunset17:2322:23
Evening civil twilight17:5322:53

Current date and time
Zulu (UTC)  13-Dec-2018 04:30:29
Local (UTC-5)  12-Dec-2018 23:30:29
 
METAR
KFTK 
9nm SW 
130356Z 21010KT 10SM OVC033 10/02 A3004 RMK AO2A SLP178 T00980024 $
KSDF 
12nm NE 
130356Z 21014G19KT 10SM BKN037 11/03 A3002 RMK AO2 SLP166 T01060028
KLOU 
15nm NE 
130353Z AUTO 21011KT 10SM CLR 11/02 A3001 RMK AO2 SLP164 T01060022
KEKX 
19nm S 
130415Z AUTO 23007G14KT 10SM OVC027 09/03 A3005 RMK AO2 T00900031
TAF
KFTK 
9nm SW 
130100Z 1301/1407 22009KT 9999 BKN030 510202 QNH2999INS BECMG 1304/1305 21009KT 9999 BKN010 OVC020 QNH3004INS BECMG 1307/1308 19009KT 9000 -RA OVC005 QNH3006INS BECMG 1315/1316 15009KT 9999 NSW BKN010 OVC050 QNH3010INS BECMG 1317/1318 13009KT 9999 FEW020 OVC080 QNH3008INS TX11/1321Z TN03/1311Z
KSDF 
12nm NE 
121720Z 1218/1324 21011G20KT P6SM FEW050 SCT200 FM122100 22012KT P6SM BKN090 FM130000 21009KT P6SM BKN040 FM131200 20008KT P6SM OVC025
NOTAMs
Click for the latest NOTAMs
NOTAMs are issued by the DoD/FAA and will open in a separate window not controlled by AirNav.

 

 
 

Would you like to see your business listed on this page?

 If your business provides an interesting product or service to pilots, flight crews, aircraft, or users of the Weavers Run Airport, you should consider listing it here.  To start the listing process, click on the button below
 
Add a business
 

Other Pages about Weavers Run Airport

Update a link
 
Copyright © AirNav, LLC. All rights reserved. Privacy Policy  Contact